Location: Bridgewater
(44.3670°N, 64.5170°W)
Time: 09:14:21
(UTC-03:00)

Amateur Radio Satellites - All Passes

Search period start: 25 June 2016 08:44
Search period end: 26 June 2016 08:44
Location: Bridgewater, 44.3670°N, 64.5170°W

Satellite Date Start Highest point End Downlink Frequencies (MHz)
Time Altitude Azimuth
CUTE-I 25 Jun 08:55:43 09:00:15 28° 296° (WNW) 09:04:47 437.470
CINEMA 3 25 Jun 09:00:15 09:04:33 46° 99° (E) 09:09:01 145.822/145.860
STRAND 1 25 Jun 09:01:38 09:05:08 18° 269° (W) 09:08:41 437.568
AAUSAT CUBESAT 2 25 Jun 09:12:51 09:16:09 22° 93° (E) 09:19:25 437.432
DOVE 4 25 Jun 09:13:20 09:17:17 39° 289° (WNW) 09:21:22 437.250
PRISM 25 Jun 09:13:53 09:18:00 59° 258° (WSW) 09:22:07 437.425
NOAA 18 25 Jun 09:23:01 09:26:40 18° 302° (WNW) 09:30:19 137.9125
CUBEBUG 2 25 Jun 09:24:21 09:28:14 27° 95° (E) 09:32:12 437.445
CANX-2 25 Jun 09:25:07 09:29:27 85° 103° (ESE) 09:33:44 2200.000
HO-68 25 Jun 09:26:50 09:34:02 69° 104° (ESE) 09:41:12 435.675
AUBIESAT-1 25 Jun 09:27:15 09:29:04 13° 98° (E) 09:30:57 437.475
GOMX 1 25 Jun 09:32:42 09:34:37 13° 298° (WNW) 09:36:32 467.674
ANTELSAT 25 Jun 09:33:03 09:35:36 16° 62° (ENE) 09:38:11 437.575/2403.000
COMPASS 1 25 Jun 09:42:22 09:46:33 59° 100° (E) 09:50:40 437.405
CUTE 1.7 + AOD 2 25 Jun 09:45:59 09:50:15 65° 285° (WNW) 09:54:28 437.475
SEEDS 25 Jun 09:57:12 10:01:26 68° 286° (WNW) 10:05:38 437.485
DELFI C3 25 Jun 09:58:37 10:00:18 12° 90° (E) 10:01:59 145.870
DANDE 25 Jun 10:00:16 10:08:33 60° 285° (WNW) 10:16:25 436.750
M-CUBED/EXP-1 PRIME 25 Jun 10:01:40 10:05:11 37° 104° (ESE) 10:08:57 437.505
ZACube-1 25 Jun 10:07:48 10:11:58 35° 97° (E) 10:16:08 437.345
CUSAT 1 25 Jun 10:17:01 10:23:12 25° 293° (WNW) 10:28:45 437.405
PHONESAT 2.4 25 Jun 10:17:04 10:19:51 31° 168° (SSE) 10:22:39 2401.200-2431.200
UWE-3 25 Jun 10:19:40 10:24:12 70° 102° (ESE) 10:28:49 435.000/436.395/437.385
HUMSAT D 25 Jun 10:21:21 10:22:43 11° 88° (E) 10:24:05 437.325/437.525
TIGRISAT 25 Jun 10:23:58 10:28:03 46° 72° (ENE) 10:32:15 435.000
Oscar 11 25 Jun 10:25:22 10:29:41 56° 100° (E) 10:33:57 145.826/435.025
FUNcube-1 25 Jun 10:27:24 10:31:49 53° 99° (E) 10:36:17 145.935
UNISAT 6 25 Jun 10:27:40 10:31:50 54° 72° (ENE) 10:36:07 437.425
CINEMA 3 25 Jun 10:38:12 10:41:25 20° 295° (WNW) 10:44:43 145.822/145.860
ISS 25 Jun 10:39:05 10:42:06 36° 140° (SE) 10:45:08 145.825
AAUSAT CUBESAT 2 25 Jun 10:47:56 10:51:42 33° 291° (WNW) 10:55:26 437.432
BEESAT 3 25 Jun 10:54:48 10:55:20 10° 31° (NNE) 10:55:53 437.485
AUBIESAT-1 25 Jun 11:00:05 11:03:47 56° 291° (WNW) 11:07:45 437.475
CUBEBUG 2 25 Jun 11:00:48 11:04:51 33° 291° (WNW) 11:09:00 437.445
CANX-2 25 Jun 11:03:33 11:04:38 11° 300° (WNW) 11:05:41 2200.000
Cosmos 2491 25 Jun 11:03:43 11:09:54 21° 60° (ENE) 11:16:01 435.465 / 435.565
ANTELSAT 25 Jun 11:07:38 11:11:51 57° 260° (W) 11:16:10 437.575/2403.000
HO-68 25 Jun 11:15:23 11:21:10 27° 303° (WNW) 11:26:58 435.675
COMPASS 1 25 Jun 11:19:21 11:21:38 14° 298° (WNW) 11:23:54 437.405
BEESAT 2 25 Jun 11:24:16 11:25:36 11° 33° (NNE) 11:26:57 435.950
NANOSAT C BR1 25 Jun 11:30:16 11:34:12 42° 71° (ENE) 11:38:10 145.865
BUGSAT 1 25 Jun 11:30:37 11:33:27 19° 65° (ENE) 11:36:16 437.445
QB50P1 25 Jun 11:30:56 11:34:56 45° 71° (ENE) 11:38:57 145.935-145.965
DELFI C3 25 Jun 11:31:35 11:35:32 56° 286° (WNW) 11:39:26 145.870
POPSAT HIP 1 25 Jun 11:33:45 11:37:45 47° 72° (ENE) 11:41:48 437.405
JAS-2 25 Jun 11:34:59 11:40:48 25° 60° (ENE) 11:46:15 435.910
M-CUBED/EXP-1 PRIME 25 Jun 11:36:52 11:39:34 19° 298° (WNW) 11:42:24 437.505
PCSat 25 Jun 11:36:57 11:41:48 31° 47° (NE) 11:46:36 145.827
ZACube-1 25 Jun 11:44:23 11:48:05 26° 293° (WNW) 11:51:50 437.345
QB50P2 25 Jun 11:44:54 11:49:03 68° 75° (ENE) 11:53:15 145.880/145.840
POLYITAN 1 25 Jun 11:47:31 11:51:40 70° 75° (ENE) 11:55:52 437.675
DANDE 25 Jun 11:48:36 11:52:54 15° 304° (NW) 11:57:04 436.750
DUCHIFAT 1 25 Jun 11:52:30 11:56:38 70° 75° (ENE) 12:00:49 145.980
PHONESAT 2.4 25 Jun 11:53:17 11:56:11 38° 185° (S) 11:59:05 2401.200-2431.200
HUMSAT D 25 Jun 11:54:31 11:58:50 72° 285° (WNW) 12:03:07 437.325/437.525
UWE-3 25 Jun 11:57:42 12:00:08 15° 298° (WNW) 12:02:37 435.000/436.395/437.385
VELOX 1 25 Jun 12:00:42 12:03:13 15° 91° (E) 12:05:44 145.980
TIGRISAT 25 Jun 12:02:14 12:05:02 17° 269° (W) 12:07:53 435.000
CUBEBUG 1 25 Jun 12:02:31 12:05:20 17° 92° (E) 12:08:09 437.445
Oscar 11 25 Jun 12:02:42 12:05:22 16° 297° (WNW) 12:08:02 145.826/435.025
FUNcube-1 25 Jun 12:04:39 12:07:41 18° 297° (WNW) 12:10:45 145.935
UNISAT 6 25 Jun 12:06:30 12:08:56 15° 270° (W) 12:11:24 437.425
O/OREOS (USA 219) 25 Jun 12:10:26 12:12:00 12° 46° (NE) 12:13:35 437.305
ISS 25 Jun 12:15:25 12:18:32 39° 338° (NNW) 12:21:39 145.825
ESTCUBE 1 25 Jun 12:19:59 12:24:12 38° 98° (E) 12:28:23 437.505/2401.250
RS-15 25 Jun 12:22:51 12:33:21 45° 109° (ESE) 12:44:21 29.354- 29.394
BEESAT 3 25 Jun 12:30:00 12:33:55 55° 52° (NE) 12:37:47 437.485
AISAT 25 Jun 12:39:50 12:43:58 39° 98° (E) 12:48:06 437.250
Gurwin Techsat 1B 25 Jun 12:42:37 12:43:59 11° 54° (NE) 12:45:20 435.225
YUBILEINY 25 Jun 12:49:03 12:56:28 33° 83° (E) 13:03:55 435.215
Oscar 19 25 Jun 12:52:23 12:56:41 27° 64° (ENE) 13:00:58 437.125/150
Cosmos 2491 25 Jun 12:59:19 13:08:06 88° 83° (E) 13:16:49 435.465 / 435.565
BEESAT 2 25 Jun 13:00:16 13:04:15 64° 54° (NE) 13:08:12 435.950
UKube-1 25 Jun 13:00:40 13:04:44 39° 99° (E) 13:08:46 .
BUGSAT 1 25 Jun 13:04:48 13:08:35 39° 262° (W) 13:12:21 437.445
NANOSAT C BR1 25 Jun 13:07:17 13:10:08 18° 268° (W) 13:13:01 145.865
QB50P1 25 Jun 13:08:13 13:10:57 17° 268° (W) 13:13:42 145.935-145.965
SPROUT 25 Jun 13:09:33 13:13:30 35° 97° (E) 13:17:25 437.525
50 SAT 25 Jun 13:10:56 13:14:40 79° 284° (WNW) 13:18:21 437.505
POPSAT HIP 1 25 Jun 13:11:13 13:13:49 16° 269° (W) 13:16:25 437.405
AIST 2 25 Jun 13:12:49 13:13:38 10° 30° (NNE) 13:14:26 435.215
DX 1 25 Jun 13:13:15 13:17:35 68° 102° (ESE) 13:21:52 434.975-435.025
AO-7 25 Jun 13:13:19 13:15:50 12° 37° (NE) 13:18:22 29.400- 29.500
JAS-2 25 Jun 13:17:26 13:25:12 79° 256° (WSW) 13:32:22 435.910
PCSat 25 Jun 13:20:12 13:25:22 46° 246° (WSW) 13:30:30 145.827
QB50P2 25 Jun 13:24:03 13:25:19 11° 271° (W) 13:26:37 145.880/145.840
POLYITAN 1 25 Jun 13:26:52 13:27:57 11° 271° (W) 13:29:04 437.675
PHONESAT 2.4 25 Jun 13:30:08 13:32:24 19° 201° (SSW) 13:34:39 2401.200-2431.200
DUCHIFAT 1 25 Jun 13:31:48 13:32:49 11° 271° (W) 13:33:51 145.980
VELOX 1 25 Jun 13:35:44 13:40:02 55° 288° (WNW) 13:44:20 145.980
CUBEBUG 1 25 Jun 13:37:44 13:41:53 47° 288° (WNW) 13:46:01 437.445
O/OREOS (USA 219) 25 Jun 13:47:40 13:52:11 82° 70° (ENE) 13:56:40 437.305
ISS 25 Jun 13:52:56 13:55:34 22° 358° (N) 13:58:13 145.825
ESTCUBE 1 25 Jun 13:57:14 14:00:48 23° 295° (WNW) 14:04:21 437.505/2401.250
BEESAT 3 25 Jun 14:08:53 14:11:09 15° 249° (WSW) 14:13:25 437.485
AISAT 25 Jun 14:16:52 14:20:12 22° 295° (WNW) 14:23:32 437.250
Gurwin Techsat 1B 25 Jun 14:17:41 14:22:57 69° 72° (ENE) 14:28:15 435.225
Cosmos 2504 25 Jun 14:21:35 14:28:50 39° 85° (E) 14:36:32 435.465 / 435.565
Oscar 19 25 Jun 14:30:58 14:35:49 41° 262° (W) 14:40:41 437.125/150
RS-15 25 Jun 14:34:01 14:45:25 63° 314° (NW) 14:57:29 29.354- 29.394
UKube-1 25 Jun 14:37:16 14:40:32 21° 296° (WNW) 14:43:47 .
BEESAT 2 25 Jun 14:39:42 14:41:35 13° 250° (WSW) 14:43:27 435.950
TISAT 1 25 Jun 14:43:25 14:47:38 85° 282° (WNW) 14:51:49 437.305
YUBILEINY 25 Jun 14:44:14 14:52:46 58° 284° (WNW) 15:01:25 435.215
ITAMSAT 1 25 Jun 14:45:04 14:50:01 47° 69° (ENE) 14:55:02 435.822/435.867
SPROUT 25 Jun 14:45:54 14:49:15 23° 294° (WNW) 14:52:38 437.525
AIST 2 25 Jun 14:49:00 14:53:05 51° 51° (NE) 14:57:08 435.215
DX 1 25 Jun 14:51:04 14:53:14 14° 300° (WNW) 14:55:24 434.975-435.025
Cosmos 2491 25 Jun 14:57:56 15:03:43 20° 283° (WNW) 15:09:30 435.465 / 435.565
AO-7 25 Jun 14:58:44 15:06:26 44° 60° (ENE) 15:14:10 29.400- 29.500
SWISSCUBE 25 Jun 15:01:05 15:05:21 31° 96° (E) 15:09:35 437.505
JAS-2 25 Jun 15:06:49 15:11:04 16° 273° (W) 15:15:11 435.910
ITUPSAT 1 25 Jun 15:25:08 15:29:48 47° 99° (E) 15:34:25 437.325
BEESAT 25 Jun 15:26:33 15:31:13 49° 100° (E) 15:35:51 436.000
ISS 25 Jun 15:29:38 15:32:39 33° 18° (NNE) 15:35:41 145.825
O/OREOS (USA 219) 25 Jun 15:30:14 15:30:52 10° 263° (W) 15:31:30 437.305
Gurwin Techsat 1B 25 Jun 16:00:09 16:03:25 16° 270° (W) 16:06:42 435.225
HORYU 2 25 Jun 16:03:58 16:06:48 17° 62° (ENE) 16:09:39 437.375
Cosmos 2504 25 Jun 16:14:13 16:21:58 49° 287° (WNW) 16:30:20 435.465 / 435.565
STARS 25 Jun 16:21:35 16:22:56 11° 89° (E) 16:24:16 437.465
ITAMSAT 1 25 Jun 16:25:35 16:29:43 24° 267° (W) 16:33:53 435.822/435.867
AIST 2 25 Jun 16:28:25 16:31:11 17° 249° (WSW) 16:33:57 435.215
MOZHAYETS 4 25 Jun 16:37:56 16:42:06 31° 96° (E) 16:46:13
SWISSCUBE 25 Jun 16:38:52 16:43:06 31° 294° (WNW) 16:47:19 437.505
YUBILEINY 25 Jun 16:48:21 16:51:52 13° 309° (NW) 16:55:24 435.215
RS-15 25 Jun 16:50:53 17:01:00 31° 345° (NNW) 17:11:29 29.354- 29.394
AO-7 25 Jun 16:51:10 16:59:07 48° 259° (W) 17:07:10 29.400- 29.500
CUTE-I 25 Jun 17:02:28 17:04:48 13° 55° (NE) 17:07:08 437.470
ITUPSAT 1 25 Jun 17:03:39 17:07:20 22° 297° (WNW) 17:10:58 437.325
BEESAT 25 Jun 17:05:07 17:08:40 21° 297° (WNW) 17:12:12 436.000
ISS 25 Jun 17:06:02 17:09:12 49° 217° (SW) 17:12:22 145.825
KKS-1 25 Jun 17:13:29 17:17:57 79° 105° (ESE) 17:22:23 437.445
SO-50 25 Jun 17:21:50 17:26:39 60° 121° (ESE) 17:31:28 436.795
NOAA 18 25 Jun 17:30:03 17:34:26 25° 62° (ENE) 17:38:51 137.9125
LilacSat-2 25 Jun 17:32:52 17:34:39 13° 63° (ENE) 17:36:28 437.200
HORYU 2 25 Jun 17:38:36 17:42:56 55° 259° (W) 17:47:19 437.375
NOAA 15 25 Jun 17:39:30 17:44:14 35° 66° (ENE) 17:49:00 137.62
STARS 25 Jun 17:55:24 17:59:49 74° 284° (WNW) 18:04:12 437.465
CUBESAT XI-V 25 Jun 17:56:04 17:59:53 25° 94° (E) 18:03:40 437.345
AIST 1 25 Jun 17:57:46 18:02:00 55° 94° (E) 18:06:14
Cubesat XI-IV 25 Jun 18:03:35 18:08:33 40° 68° (ENE) 18:13:32 437.490
BRITE-PL 25 Jun 18:10:21 18:15:24 56° 73° (ENE) 18:20:04 437.365/2234.400
HO-68 25 Jun 18:14:13 18:17:26 14° 47° (NE) 18:20:38 435.675
MOZHAYETS 4 25 Jun 18:15:11 18:19:11 29° 293° (WNW) 18:23:11
Cosmos 2504 25 Jun 18:16:34 18:18:01 10° 312° (NW) 18:19:30 435.465 / 435.565
CUTE-I 25 Jun 18:38:39 18:43:58 80° 74° (ENE) 18:49:22 437.470
DOVE 4 25 Jun 18:43:36 18:47:06 24° 67° (ENE) 18:50:30 437.250
GONETS M04 25 Jun 18:45:17 18:53:14 42° 86° (E) 19:01:10
KKS-1 25 Jun 18:52:01 18:53:54 13° 301° (WNW) 18:55:46 437.445
DANDE 25 Jun 18:59:10 19:03:08 19° 59° (ENE) 19:06:25 436.750
GOMX 1 25 Jun 19:02:13 19:06:57 83° 76° (ENE) 19:11:24 467.674
SO-50 25 Jun 19:03:29 19:07:30 25° 320° (NW) 19:11:30 436.795
LilacSat-2 25 Jun 19:04:51 19:08:32 52° 261° (W) 19:12:16 437.200
CUTE 1.7 + AOD 2 25 Jun 19:07:09 19:08:45 12° 60° (ENE) 19:10:22 437.475
RS-15 25 Jun 19:07:47 19:18:25 33° 20° (NNE) 19:29:09 29.354- 29.394
Cosmos 2499 25 Jun 19:08:02 19:15:27 39° 85° (E) 19:23:17 435.465 / 435.565
CUSAT 1 25 Jun 19:08:49 19:12:51 40° 72° (ENE) 19:16:00 437.405
NOAA 18 25 Jun 19:09:29 19:14:46 50° 260° (W) 19:20:07 137.9125
SEEDS 25 Jun 19:17:55 19:19:10 11° 60° (ENE) 19:20:24 437.485
NOAA 15 25 Jun 19:19:14 19:24:00 33° 264° (W) 19:28:47 137.62
STRAND 1 25 Jun 19:30:28 19:33:54 18° 91° (E) 19:37:19 437.568
CUBESAT XI-V 25 Jun 19:33:07 19:37:22 36° 291° (WNW) 19:41:33 437.345
AIST 1 25 Jun 19:37:34 19:39:58 14° 292° (WNW) 19:42:23
Cubesat XI-IV 25 Jun 19:44:08 19:48:43 29° 265° (W) 19:53:21 437.490
BRITE-PL 25 Jun 19:50:37 19:54:07 18° 268° (W) 19:57:29 437.365/2234.400
HO-68 25 Jun 19:56:43 20:03:43 60° 68° (ENE) 20:10:45 435.675
CINEMA 3 25 Jun 20:03:46 20:07:44 47° 72° (ENE) 20:11:45 145.822/145.860
AAUSAT CUBESAT 2 25 Jun 20:04:56 20:07:57 19° 65° (ENE) 20:10:59 437.432
AUBIESAT-1 25 Jun 20:15:05 20:17:24 18° 61° (ENE) 20:19:43 437.475
CANX-2 25 Jun 20:19:01 20:23:16 73° 76° (ENE) 20:27:35 2200.000
DOVE 4 25 Jun 20:20:46 20:24:43 32° 263° (W) 20:28:32 437.250
CUTE-I 25 Jun 20:21:57 20:24:40 14° 272° (W) 20:27:24 437.470
CUBEBUG 2 25 Jun 20:24:29 20:27:55 25° 67° (ENE) 20:31:24 437.445
COMPASS 1 25 Jun 20:34:22 20:38:24 48° 72° (ENE) 20:42:29 437.405
CUTE 1.7 + AOD 2 25 Jun 20:39:43 20:43:58 77° 256° (WSW) 20:48:18 437.475
DANDE 25 Jun 20:41:16 20:46:40 51° 268° (W) 20:50:41 436.750
GONETS M04 25 Jun 20:41:40 20:49:57 46° 287° (WNW) 20:58:16
GOMX 1 25 Jun 20:44:50 20:45:32 10° 271° (W) 20:46:12 467.674
DELFI C3 25 Jun 20:47:43 20:48:18 10° 60° (ENE) 20:48:54 145.870
SEEDS 25 Jun 20:49:58 20:54:12 82° 256° (WSW) 20:58:30 437.485
M-CUBED/EXP-1 PRIME 25 Jun 20:50:23 20:53:37 61° 69° (ENE) 20:56:51 437.505
CUSAT 1 25 Jun 20:52:52 20:54:07 11° 280° (W) 20:55:17 437.405
PRISM 25 Jun 20:54:55 20:57:28 16° 92° (E) 21:00:01 437.425
Cosmos 2499 25 Jun 21:00:20 21:08:19 51° 286° (WNW) 21:16:51 435.465 / 435.565
ZACube-1 25 Jun 21:05:22 21:09:04 32° 69° (ENE) 21:12:52 437.345
STRAND 1 25 Jun 21:08:23 21:13:30 62° 288° (WNW) 21:18:34 437.568
HUMSAT D 25 Jun 21:15:25 21:16:10 10° 59° (ENE) 21:16:56 437.325/437.525
UWE-3 25 Jun 21:18:13 21:22:20 65° 75° (ENE) 21:26:35 435.000/436.395/437.385
RS-15 25 Jun 21:21:19 21:33:40 70° 50° (NE) 21:45:56 29.354- 29.394
Oscar 11 25 Jun 21:21:22 21:25:35 52° 72° (ENE) 21:29:49 145.826/435.025
FUNcube-1 25 Jun 21:24:28 21:28:29 47° 72° (ENE) 21:32:36 145.935
AAUSAT CUBESAT 2 25 Jun 21:39:12 21:43:09 41° 262° (W) 21:47:09 437.432
CINEMA 3 25 Jun 21:42:47 21:45:12 15° 269° (W) 21:47:37 145.822/145.860
HO-68 25 Jun 21:45:51 21:51:50 28° 266° (W) 21:57:53 435.675
AUBIESAT-1 25 Jun 21:48:54 21:51:46 27° 258° (WSW) 21:54:39 437.475
CANX-2 25 Jun 21:58:32 21:59:38 11° 272° (W) 22:00:46 2200.000
CUBEBUG 2 25 Jun 22:00:48 22:04:26 29° 265° (W) 22:08:10 437.445
COMPASS 1 25 Jun 22:11:36 22:14:13 16° 269° (W) 22:16:53 437.405
DELFI C3 25 Jun 22:18:30 22:22:32 81° 258° (WSW) 22:26:36 145.870
UNISAT 6 25 Jun 22:19:59 22:21:10 11° 88° (E) 22:22:21 437.425
PRISM 25 Jun 22:29:07 22:33:02 45° 289° (WNW) 22:36:54 437.425
ZACube-1 25 Jun 22:42:01 22:45:25 24° 266° (W) 22:48:53 437.345
HUMSAT D 25 Jun 22:46:57 22:51:07 85° 260° (W) 22:55:21 437.325/437.525
AO-85 25 Jun 22:51:54 22:57:12 57° 120° (ESE) 23:02:21 145.980
YUBILEINY 25 Jun 22:56:47 23:02:28 18° 57° (ENE) 23:08:07 435.215
ANTELSAT 25 Jun 22:57:38 23:01:33 27° 95° (E) 23:05:30 437.575/2403.000
UWE-3 25 Jun 22:57:53 22:59:19 11° 272° (W) 23:00:44 435.000/436.395/437.385
Oscar 11 25 Jun 22:59:23 23:02:01 16° 269° (W) 23:04:40 145.826/435.025
VELOX 1 25 Jun 22:59:38 23:02:34 18° 63° (ENE) 23:05:30 145.980
CUBEBUG 1 25 Jun 23:00:11 23:03:12 19° 64° (ENE) 23:06:13 437.445
Cosmos 2499 25 Jun 23:01:42 23:04:03 11° 311° (NW) 23:06:25 435.465 / 435.565
FUNcube-1 25 Jun 23:02:26 23:05:01 16° 269° (W) 23:07:40 145.935
ESTCUBE 1 25 Jun 23:20:49 23:25:06 43° 70° (ENE) 23:29:25 437.505/2401.250
POLYITAN 1 25 Jun 23:34:03 23:34:19 10° 88° (E) 23:34:33 437.675
RS-15 25 Jun 23:34:31 23:45:30 41° 253° (WSW) 23:56:24 29.354- 29.394
AISAT 25 Jun 23:38:34 23:42:45 43° 70° (ENE) 23:46:55 437.250
TIGRISAT 25 Jun 23:49:46 23:54:24 85° 101° (E) 23:59:06 435.000
50 SAT 25 Jun 23:50:00 23:53:38 57° 74° (ENE) 23:57:19 437.505
UNISAT 6 25 Jun 23:53:48 23:58:26 84° 283° (WNW) 00:03:07 437.425
UKube-1 25 Jun 23:56:33 00:00:36 41° 70° (ENE) 00:04:40 .
SPROUT 26 Jun 00:04:38 00:08:26 33° 69° (ENE) 00:12:16 437.525
Cosmos 2491 26 Jun 00:08:58 00:14:58 21° 77° (ENE) 00:20:57 435.465 / 435.565
DX 1 26 Jun 00:10:00 00:14:19 72° 75° (ENE) 00:18:40 434.975-435.025
Cosmos 2504 26 Jun 00:12:21 00:17:55 18° 56° (ENE) 00:23:24 435.465 / 435.565
SO-50 26 Jun 00:12:24 00:15:26 17° 33° (NNE) 00:18:25 436.795
JAS-2 26 Jun 00:30:09 00:31:09 10° 83° (E) 00:32:08 435.910
AO-85 26 Jun 00:33:21 00:38:00 29° 318° (NW) 00:42:29 145.980
ANTELSAT 26 Jun 00:34:07 00:38:17 34° 291° (WNW) 00:42:30 437.575/2403.000
VELOX 1 26 Jun 00:34:21 00:38:39 51° 260° (W) 00:42:58 145.980
CUBEBUG 1 26 Jun 00:34:57 00:39:10 47° 261° (W) 00:43:23 437.445
BUGSAT 1 26 Jun 00:44:56 00:48:17 24° 95° (E) 00:51:39 437.445
NANOSAT C BR1 26 Jun 00:48:16 00:52:29 63° 102° (ESE) 00:56:42 145.865
QB50P1 26 Jun 00:49:21 00:53:36 68° 102° (ESE) 00:57:50 145.935-145.965
YUBILEINY 26 Jun 00:52:01 01:00:54 78° 81° (E) 01:09:45 435.215
POPSAT HIP 1 26 Jun 00:52:14 00:56:30 72° 103° (ESE) 01:00:45 437.405
ESTCUBE 1 26 Jun 00:58:43 01:02:06 20° 267° (W) 01:05:30 437.505/2401.250
QB50P2 26 Jun 01:03:45 01:08:01 79° 283° (WNW) 01:12:17 145.880/145.840
POLYITAN 1 26 Jun 01:06:21 01:10:38 78° 285° (WNW) 01:14:54 437.675
DUCHIFAT 1 26 Jun 01:10:26 01:14:41 79° 284° (WNW) 01:18:55 145.980
AISAT 26 Jun 01:16:16 01:19:25 19° 267° (W) 01:22:35 437.250
50 SAT 26 Jun 01:26:48 01:27:41 11° 270° (W) 01:28:33 437.505
TIGRISAT 26 Jun 01:28:32 01:30:27 12° 300° (WNW) 01:32:22 435.000
UNISAT 6 26 Jun 01:33:15 01:34:24 11° 302° (WNW) 01:35:34 437.425
UKube-1 26 Jun 01:33:42 01:36:49 19° 267° (W) 01:39:58 .
TISAT 1 26 Jun 01:36:17 01:40:27 87° 72° (ENE) 01:44:39 437.305
SPROUT 26 Jun 01:41:02 01:44:27 23° 266° (W) 01:47:53 437.525
DX 1 26 Jun 01:49:34 01:51:00 11° 271° (W) 01:52:26 434.975-435.025
SO-50 26 Jun 01:51:58 01:56:41 82° 53° (NE) 02:01:14 436.795
Cosmos 2491 26 Jun 02:01:51 02:10:39 86° 278° (W) 02:19:27 435.465 / 435.565
Cosmos 2504 26 Jun 02:04:07 02:13:04 73° 79° (E) 02:21:43 435.465 / 435.565
SWISSCUBE 26 Jun 02:08:53 02:13:24 43° 69° (ENE) 02:17:57 437.505
JAS-2 26 Jun 02:11:31 02:17:25 84° 104° (ESE) 02:22:44 435.910
BUGSAT 1 26 Jun 02:20:07 02:23:40 29° 291° (WNW) 02:27:14 437.445
PCSat 26 Jun 02:21:57 02:25:29 18° 105° (ESE) 02:29:01 145.827
NANOSAT C BR1 26 Jun 02:25:33 02:27:43 14° 298° (WNW) 02:29:54 145.865
QB50P1 26 Jun 02:26:52 02:28:50 13° 299° (WNW) 02:30:49 145.935-145.965
POPSAT HIP 1 26 Jun 02:29:56 02:31:43 12° 299° (WNW) 02:33:30 437.405
Gurwin Techsat 1B 26 Jun 02:32:50 02:37:06 24° 93° (E) 02:41:21 435.225
ITUPSAT 1 26 Jun 02:33:13 02:37:58 66° 73° (ENE) 02:42:44 437.325
BEESAT 26 Jun 02:34:17 02:39:01 69° 73° (ENE) 02:43:48 436.000
Oscar 19 26 Jun 02:40:23 02:45:28 61° 102° (ESE) 02:50:31 437.125/150
KKS-1 26 Jun 02:40:33 02:41:24 10° 58° (ENE) 02:42:15 437.445
YUBILEINY 26 Jun 02:50:10 02:56:42 24° 281° (W) 03:03:15 435.215
ITAMSAT 1 26 Jun 02:57:43 03:00:30 14° 89° (E) 03:03:15 435.822/435.867
STARS 26 Jun 03:19:42 03:21:52 14° 60° (ENE) 03:24:02 437.465
SO-50 26 Jun 03:34:32 03:36:27 12° 253° (WSW) 03:38:21 436.795
MOZHAYETS 4 26 Jun 03:41:12 03:45:24 36° 69° (ENE) 03:49:39
SWISSCUBE 26 Jun 03:47:38 03:51:22 22° 267° (W) 03:55:08 437.505
JAS-2 26 Jun 03:58:12 04:01:35 16° 306° (NW) 04:04:49 435.910
Cosmos 2504 26 Jun 03:58:37 04:05:35 27° 280° (W) 04:12:25 435.465 / 435.565
BEESAT 3 26 Jun 03:59:11 04:03:02 57° 121° (ESE) 04:06:55 437.485
O/OREOS (USA 219) 26 Jun 04:01:21 04:05:49 71° 111° (ESE) 04:10:17 437.305
Cosmos 2491 26 Jun 04:02:50 04:08:54 20° 301° (WNW) 04:14:59 435.465 / 435.565
PCSat 26 Jun 04:02:51 04:08:16 71° 304° (NW) 04:13:43 145.827
AIST 1 26 Jun 04:03:59 04:06:44 16° 69° (ENE) 04:09:28
Gurwin Techsat 1B 26 Jun 04:12:10 04:17:17 48° 290° (WNW) 04:22:22 435.225
KKS-1 26 Jun 04:12:49 04:17:15 87° 75° (ENE) 04:21:42 437.445
ITUPSAT 1 26 Jun 04:13:34 04:16:15 15° 270° (W) 04:18:57 437.325
BEESAT 26 Jun 04:14:48 04:17:18 14° 270° (W) 04:19:48 436.000
Oscar 19 26 Jun 04:20:45 04:24:19 19° 299° (WNW) 04:27:53 437.125/150
BEESAT 2 26 Jun 04:30:53 04:34:50 70° 121° (ESE) 04:38:48 435.950
ITAMSAT 1 26 Jun 04:35:18 04:40:33 77° 286° (WNW) 04:45:46 435.822/435.867
AO-7 26 Jun 04:50:18 04:58:31 55° 102° (ESE) 05:06:39 29.400- 29.500
STARS 26 Jun 04:53:21 04:57:41 69° 257° (WSW) 05:02:03 437.465
GONETS M04 26 Jun 04:53:21 04:59:54 23° 61° (ENE) 05:06:26
Cosmos 2499 26 Jun 04:57:52 05:03:10 17° 55° (NE) 05:08:20 435.465 / 435.565
CUBESAT XI-V 26 Jun 05:00:44 05:04:49 30° 67° (ENE) 05:08:55 437.345
MOZHAYETS 4 26 Jun 05:18:50 05:22:38 25° 266° (W) 05:26:30
HORYU 2 26 Jun 05:28:11 05:31:52 24° 95° (E) 05:35:32 437.375
BEESAT 3 26 Jun 05:38:14 05:41:03 18° 320° (NW) 05:43:53 437.485
AIST 1 26 Jun 05:40:32 05:44:36 45° 267° (W) 05:48:40
O/OREOS (USA 219) 26 Jun 05:43:03 05:45:44 15° 310° (NW) 05:48:25 437.305
AO-85 26 Jun 05:43:23 05:46:01 15° 30° (NNE) 05:48:32 145.980
PCSat 26 Jun 05:49:21 05:52:40 16° 325° (NW) 05:56:00 145.827
NOAA 15 26 Jun 05:56:14 05:56:38 10° 87° (E) 05:57:02 137.62
BEESAT 2 26 Jun 06:10:29 06:13:06 17° 321° (NW) 06:15:44 435.950
BRITE-PL 26 Jun 06:15:22 06:17:05 12° 89° (E) 06:18:47 437.365/2234.400
ITAMSAT 1 26 Jun 06:17:12 06:19:08 12° 305° (NW) 06:21:03 435.822/435.867
Cubesat XI-IV 26 Jun 06:20:38 06:23:18 14° 88° (E) 06:25:57 437.490
AIST 2 26 Jun 06:25:51 06:29:55 64° 122° (ESE) 06:34:01 435.215
CUSAT 1 26 Jun 06:34:00 06:35:18 10° 80° (E) 06:36:34 437.405
LilacSat-2 26 Jun 06:37:38 06:39:54 15° 91° (E) 06:42:09 437.200
CUBESAT XI-V 26 Jun 06:37:58 06:42:08 31° 264° (W) 06:46:20 437.345
AO-7 26 Jun 06:43:28 06:51:01 39° 302° (WNW) 06:58:33 29.400- 29.500
STRAND 1 26 Jun 06:47:32 06:51:59 31° 65° (ENE) 06:56:27 437.568
GONETS M04 26 Jun 06:49:09 06:57:54 85° 263° (W) 07:06:39
Cosmos 2499 26 Jun 06:49:16 06:58:10 71° 79° (E) 07:06:33 435.465 / 435.565
CUTE-I 26 Jun 06:54:28 06:59:06 28° 95° (E) 07:03:40 437.470
GOMX 1 26 Jun 07:02:54 07:05:50 18° 93° (E) 07:08:49 467.674
HORYU 2 26 Jun 07:04:24 07:08:30 35° 292° (WNW) 07:12:35 437.375
AO-85 26 Jun 07:22:50 07:27:27 70° 53° (NE) 07:31:38 145.980
NOAA 18 26 Jun 07:29:31 07:35:01 60° 102° (ESE) 07:40:30 137.9125
NOAA 15 26 Jun 07:31:56 07:37:13 81° 104° (ESE) 07:42:28 137.62
PRISM 26 Jun 07:46:11 07:48:46 16° 63° (ENE) 07:51:20 437.425
BRITE-PL 26 Jun 07:51:55 07:56:02 57° 286° (WNW) 08:00:06 437.365/2234.400
Cubesat XI-IV 26 Jun 07:58:37 08:04:02 83° 285° (WNW) 08:09:25 437.490
CINEMA 3 26 Jun 07:58:39 07:59:40 11° 88° (E) 08:00:42 145.822/145.860
CANX-2 26 Jun 08:04:40 08:06:07 11° 88° (E) 08:07:33 2200.000
DANDE 26 Jun 08:05:03 08:12:11 32° 87° (E) 08:18:59 436.750
AIST 2 26 Jun 08:05:51 08:08:48 19° 321° (NW) 08:11:46 435.215
CUSAT 1 26 Jun 08:08:40 08:16:22 58° 95° (E) 08:23:01 437.405
LilacSat-2 26 Jun 08:10:44 08:14:26 43° 288° (WNW) 08:18:07 437.200
DOVE 4 26 Jun 08:16:44 08:20:54 52° 100° (E) 08:25:16 437.250
CUTE 1.7 + AOD 2 26 Jun 08:24:06 08:26:53 17° 91° (E) 08:29:38 437.475
STRAND 1 26 Jun 08:26:20 08:31:03 36° 263° (W) 08:35:49 437.568
SEEDS 26 Jun 08:33:34 08:36:03 15° 90° (E) 08:38:30 437.485
CUTE-I 26 Jun 08:34:13 08:39:15 42° 292° (WNW) 08:44:16 437.470
AO-7 26 Jun 08:40:17 08:41:26 10° 325° (NW) 08:42:35 29.400- 29.500
